| time (UTC) | temp C | wind direction | speed KPH | gust KPH | rain 1hr cm | rain 24hr cm | rain mn cm | humidity % | barometer mb |
| 20260502164017 | 15 | 184 | 0.0 | 1.6 | 0.00 | 0.00 | 0.00 | 27 | 1026.2 |
| 20260502163035 | 15 | 123 | 1.6 | 4.8 | 0.00 | 0.00 | 0.00 | 26 | 1026.2 |
| 20260502162015 | 15 | 13 | 1.6 | 4.8 | 0.00 | 0.00 | 0.00 | 27 | 1026.2 |
| 20260502161036 | 15 | 301 | 0.0 | 3.2 | 0.00 | 0.00 | 0.00 | 29 | 1026.3 |
| 20260502152015 | 11 | 56 | 0.0 | 4.8 | 0.00 | 0.00 | 0.00 | 39 | 1026.7 |
| 20260502151035 | 11 | 220 | 1.6 | 4.8 | 0.00 | 0.00 | 0.00 | 38 | 1026.7 |
| 20260502123036 | 3 | 132 | 1.6 | 4.8 | 0.00 | 0.00 | 0.00 | 55 | 1026.1 |
| 20260502122017 | 3 | 132 | 0.0 | 1.6 | 0.00 | 0.00 | 0.00 | 55 | 1026.0 |
| 20260502121017 | 3 | 131 | 0.0 | 3.2 | 0.00 | 0.00 | 0.00 | 55 | 1025.9 |
| 20260502115015 | 3 | 134 | 1.6 | 3.2 | 0.00 | 0.00 | 0.00 | 55 | 1025.9 |
| 20260502114015 | 3 | 135 | 1.6 | 3.2 | 0.00 | 0.00 | 0.00 | 55 | 1025.9 |
| 20260502113015 | 3 | 139 | 1.6 | 3.2 | 0.00 | 0.00 | 0.00 | 55 | 1025.8 |
| 20260502112016 | 3 | 136 | 0.0 | 1.6 | 0.00 | 0.00 | 0.00 | 55 | 1025.9 |
| 20260502111016 | 3 | 134 | 1.6 | 3.2 | 0.00 | 0.00 | 0.00 | 55 | 1025.9 |
| 20260502110017 | 3 | 137 | 1.6 | 4.8 | 0.00 | 0.00 | 0.00 | 55 | 1025.9 |
| 20260502105017 | 3 | 133 | 1.6 | 4.8 | 0.00 | 0.00 | 0.00 | 55 | 1025.9 |
| 20260502104015 | 3 | 135 | 1.6 | 3.2 | 0.00 | 0.00 | 0.00 | 55 | 1026.0 |
| 20260502103015 | 3 | 131 | 1.6 | 4.8 | 0.00 | 0.00 | 0.00 | 55 | 1025.9 |
| 20260502102016 | 3 | 136 | 1.6 | 4.8 | 0.00 | 0.00 | 0.00 | 55 | 1025.9 |
| 20260502101036 | 3 | 135 | 1.6 | 4.8 | 0.00 | 0.00 | 0.00 | 55 | 1025.8 |
| 20260502091016 | 4 | 136 | 1.6 | 4.8 | 0.00 | 0.00 | 0.00 | 52 | 1025.7 |
| 20260502071015 | 4 | 137 | 0.0 | 1.6 | 0.00 | 0.00 | 0.00 | 53 | 1026.0 |
| 20260502070015 | 5 | 132 | 0.0 | 3.2 | 0.00 | 0.00 | 0.00 | 52 | 1026.0 |
| 20260502065036 | 5 | 132 | 1.6 | 4.8 | 0.00 | 0.00 | 0.00 | 52 | 1026.1 |
| 20260502064036 | 5 | 135 | 3.2 | 6.4 | 0.00 | 0.00 | 0.00 | 51 | 1026.0 |
| 20260502063037 | 5 | 136 | 1.6 | 6.4 | 0.00 | 0.00 | 0.00 | 51 | 1026.0 |
| 20260502062017 | 5 | 139 | 0.0 | 3.2 | 0.00 | 0.00 | 0.00 | 51 | 1026.0 |
| 20260502061015 | 5 | 139 | 1.6 | 4.8 | 0.00 | 0.00 | 0.00 | 50 | 1026.0 |
| 20260502060015 | 6 | 135 | 1.6 | 4.8 | 0.00 | 0.00 | 0.00 | 49 | 1025.9 |
| 20260502055015 | 6 | 134 | 1.6 | 4.8 | 0.00 | 0.00 | 0.00 | 49 | 1025.9 |
| 20260502054036 | 6 | 137 | 0.0 | 3.2 | 0.00 | 0.00 | 0.00 | 49 | 1025.9 |
| 20260502053016 | 6 | 0.0 | 0.0 | 0.00 | 0.00 | 0.00 | 49 | 1025.9 | |
| 20260502052057 | 6 | 124 | 0.0 | 3.2 | 0.00 | 0.00 | 0.00 | 49 | 1025.9 |
| 20260502051017 | 6 | 126 | 0.0 | 1.6 | 0.00 | 0.00 | 0.00 | 48 | 1025.8 |
| 20260502050015 | 7 | 132 | 0.0 | 1.6 | 0.00 | 0.00 | 0.00 | 46 | 1025.8 |
| 20260502045035 | 7 | 118 | 0.0 | 1.6 | 0.00 | 0.00 | 0.00 | 41 | 1025.7 |
| 20260502044016 | 7 | 118 | 0.0 | 1.6 | 0.00 | 0.00 | 0.00 | 41 | 1025.6 |
| 20260502043016 | 7 | 112 | 0.0 | 1.6 | 0.00 | 0.03 | 0.00 | 40 | 1025.6 |
| 20260502042016 | 8 | 101 | 0.0 | 1.6 | 0.00 | 0.03 | 0.00 | 39 | 1025.4 |
| 20260502041017 | 7 | 102 | 0.0 | 1.6 | 0.00 | 0.03 | 0.00 | 41 | 1025.3 |
| 20260502040017 | 7 | 0.0 | 0.0 | 0.00 | 0.03 | 0.00 | 41 | 1025.2 | |
| 20260502035015 | 7 | 102 | 0.0 | 1.6 | 0.00 | 0.05 | 0.00 | 40 | 1025.1 |
| 20260502034055 | 8 | 102 | 0.0 | 1.6 | 0.00 | 0.13 | 0.00 | 40 | 1025.0 |
| 20260502033036 | 7 | 0.0 | 0.0 | 0.00 | 0.15 | 0.00 | 40 | 1024.9 | |
| 20260502032016 | 7 | 0.0 | 0.0 | 0.00 | 0.15 | 0.00 | 41 | 1024.7 | |
| 20260502031016 | 8 | 0.0 | 0.0 | 0.00 | 0.15 | 0.00 | 40 | 1024.6 | |
| 20260502030017 | 8 | 0.0 | 0.0 | 0.00 | 0.15 | 0.00 | 38 | 1024.5 | |
| 20260502025037 | 8 | 0.0 | 0.0 | 0.00 | 0.15 | 0.00 | 37 | 1024.3 | |
| 20260502024035 | 9 | 0.0 | 0.0 | 0.00 | 0.15 | 0.00 | 36 | 1024.2 | |
| 20260502023015 | 10 | 0.0 | 0.0 | 0.00 | 0.15 | 0.00 | 34 | 1024.1 | |
| 20260502022016 | 10 | 331 | 0.0 | 1.6 | 0.00 | 0.15 | 0.00 | 32 | 1023.9 |
| 20260502021036 | 10 | 327 | 0.0 | 1.6 | 0.00 | 0.15 | 0.00 | 31 | 1023.8 |
| 20260502020016 | 11 | 273 | 0.0 | 1.6 | 0.00 | 0.15 | 0.00 | 31 | 1023.8 |
| 20260502015037 | 11 | 0.0 | 0.0 | 0.00 | 0.15 | 0.00 | 30 | 1023.7 | |
| 20260502014017 | 12 | 275 | 0.0 | 1.6 | 0.00 | 0.15 | 0.00 | 28 | 1023.6 |
| 20260502013035 | 12 | 262 | 0.0 | 1.6 | 0.00 | 0.15 | 0.00 | 27 | 1023.5 |
| 20260502012035 | 12 | 298 | 0.0 | 1.6 | 0.00 | 0.15 | 0.00 | 27 | 1023.4 |
| 20260502011015 | 12 | 149 | 0.0 | 1.6 | 0.00 | 0.15 | 0.00 | 26 | 1023.4 |
| 20260502010036 | 13 | 255 | 0.0 | 3.2 | 0.00 | 0.15 | 0.00 | 25 | 1023.3 |
| 20260502005017 | 13 | 285 | 0.0 | 3.2 | 0.00 | 0.15 | 0.00 | 24 | 1023.3 |
| 20260502004017 | 14 | 305 | 0.0 | 4.8 | 0.00 | 0.15 | 0.00 | 24 | 1023.3 |
| 20260502003037 | 15 | 42 | 0.0 | 4.8 | 0.00 | 0.15 | 0.00 | 23 | 1023.2 |
| 20260502002015 | 15 | 277 | 0.0 | 3.2 | 0.00 | 0.15 | 0.00 | 22 | 1023.2 |
| 20260502001015 | 16 | 179 | 0.0 | 4.8 | 0.00 | 0.15 | 0.00 | 21 | 1023.1 |
| 20260502000016 | 16 | 51 | 1.6 | 11.3 | 0.00 | 0.15 | 0.00 | 21 | 1023.1 |
| 20260501235056 | 16 | 63 | 0.0 | 1.6 | 0.00 | 0.15 | 0.00 | 22 | 1023.1 |
| 20260501234016 | 16 | 343 | 1.6 | 8.0 | 0.00 | 0.15 | 0.00 | 21 | 1023.2 |
| 20260501233017 | 16 | 285 | 1.6 | 4.8 | 0.00 | 0.15 | 0.00 | 22 | 1023.3 |
| 20260501232015 | 16 | 341 | 0.0 | 3.2 | 0.00 | 0.15 | 0.00 | 23 | 1023.2 |
| 20260501231015 | 15 | 346 | 1.6 | 6.4 | 0.00 | 0.15 | 0.00 | 23 | 1023.2 |
| 20260501230015 | 14 | 335 | 0.0 | 4.8 | 0.00 | 0.15 | 0.00 | 26 | 1023.2 |
| 20260501225016 | 13 | 146 | 0.0 | 1.6 | 0.00 | 0.15 | 0.00 | 28 | 1023.2 |
| 20260501224016 | 14 | 342 | 0.0 | 3.2 | 0.00 | 0.15 | 0.00 | 28 | 1023.2 |
| 20260501223017 | 14 | 39 | 1.6 | 9.7 | 0.00 | 0.15 | 0.00 | 28 | 1023.2 |
| 20260501222037 | 14 | 258 | 0.0 | 1.6 | 0.00 | 0.15 | 0.00 | 29 | 1023.2 |
| 20260501221035 | 15 | 286 | 0.0 | 4.8 | 0.00 | 0.15 | 0.00 | 29 | 1023.3 |
| 20260501220015 | 15 | 54 | 0.0 | 3.2 | 0.00 | 0.15 | 0.00 | 29 | 1023.3 |
| 20260501215015 | 15 | 292 | 0.0 | 1.6 | 0.00 | 0.15 | 0.00 | 30 | 1023.4 |
| 20260501214016 | 15 | 265 | 1.6 | 4.8 | 0.00 | 0.15 | 0.00 | 29 | 1023.4 |
| 20260501213016 | 15 | 245 | 1.6 | 4.8 | 0.00 | 0.15 | 0.00 | 30 | 1023.5 |
| 20260501212017 | 15 | 276 | 1.6 | 3.2 | 0.00 | 0.15 | 0.00 | 30 | 1023.6 |
| 20260501211017 | 16 | 238 | 0.0 | 1.6 | 0.00 | 0.15 | 0.00 | 31 | 1023.7 |
| 20260501210015 | 16 | 179 | 1.6 | 12.9 | 0.00 | 0.15 | 0.00 | 28 | 1023.8 |
| 20260501205016 | 15 | 77 | 0.0 | 3.2 | 0.00 | 0.15 | 0.00 | 30 | 1023.9 |
| 20260501204016 | 15 | 73 | 0.0 | 1.6 | 0.00 | 0.15 | 0.00 | 33 | 1024.0 |
| 20260501203016 | 15 | 101 | 1.6 | 3.2 | 0.00 | 0.15 | 0.00 | 32 | 1024.0 |
| 20260501202036 | 14 | 89 | 0.0 | 3.2 | 0.00 | 0.15 | 0.00 | 31 | 1024.0 |
| 20260501201017 | 15 | 350 | 0.0 | 3.2 | 0.00 | 0.15 | 0.00 | 32 | 1024.1 |
| 20260501200017 | 15 | 335 | 0.0 | 3.2 | 0.00 | 0.15 | 0.00 | 33 | 1024.1 |
| 20260501195015 | 15 | 193 | 1.6 | 6.4 | 0.00 | 0.15 | 0.00 | 33 | 1024.1 |
| 20260501194015 | 13 | 273 | 1.6 | 4.8 | 0.00 | 0.15 | 0.00 | 36 | 1024.1 |
| 20260501193016 | 14 | 106 | 1.6 | 6.4 | 0.00 | 0.15 | 0.00 | 34 | 1024.2 |
| 20260501192016 | 14 | 304 | 1.6 | 4.8 | 0.00 | 0.15 | 0.00 | 37 | 1024.2 |
| 20260501191017 | 13 | 277 | 0.0 | 3.2 | 0.00 | 0.15 | 0.00 | 37 | 1024.3 |
| 20260501190037 | 13 | 250 | 1.6 | 6.4 | 0.00 | 0.15 | 0.00 | 39 | 1024.4 |
| 20260501185014 | 12 | 237 | 1.6 | 4.8 | 0.00 | 0.15 | 0.00 | 38 | 1024.5 |
| 20260501184015 | 13 | 259 | 0.0 | 1.6 | 0.00 | 0.15 | 0.00 | 38 | 1024.5 |
| 20260501183016 | 13 | 240 | 0.0 | 1.6 | 0.00 | 0.15 | 0.00 | 40 | 1024.6 |
| 20260501182016 | 11 | 118 | 1.6 | 8.0 | 0.00 | 0.15 | 0.00 | 39 | 1024.6 |
| 20260501181036 | 12 | 360 | 0.0 | 3.2 | 0.00 | 0.15 | 0.00 | 40 | 1024.8 |
| 20260501180017 | 12 | 110 | 0.0 | 3.2 | 0.00 | 0.15 | 0.00 | 41 | 1024.8 |
| 20260501175017 | 11 | 2 | 0.0 | 3.2 | 0.00 | 0.15 | 0.00 | 41 | 1024.9 |
| 20260501174035 | 11 | 132 | 1.6 | 9.7 | 0.00 | 0.15 | 0.00 | 40 | 1025.0 |